Simultaneous Nadir Overpasses (SNOs) Predictions

Prediction of SNOs between LANDSAT-8 and METOP-A Satellite Orbit:

Table of predicted SNOs for the next 14.0 days since TLE Epoch: 10/3/2014
Index Date (LANDSAT-8) Time (LANDSAT-8) Lat,Lon (LANDSAT-8) SZA (LANDSAT-8 ) Date (METOP-A) Time (METOP-A) Lat,Lon (METOP-A) SZA (METOP-A ) Distance(km) Time Diff (sec)
1 10/04/2014 18:32:55 -81.10, 121.35 92.10 10/04/2014 18:32:17 -81.10, 121.42 92.10 1.26 38
2 10/04/2014 19:22:19 81.13, -70.60 87.99 10/04/2014 19:22:55 81.13, -70.42 88.02 3.10 36
3 10/07/2014 14:07:10 -81.10,-172.27 91.01 10/07/2014 14:06:38 -81.10,-172.34 91.03 1.19 32
4 10/07/2014 14:56:35 81.12, -4.24 89.07 10/07/2014 14:57:17 81.12, -4.20 89.10 0.71 42
5 10/10/2014 09:41:25 -81.10,-105.76 89.91 10/10/2014 09:40:59 -81.10,-105.79 89.92 0.46 26
6
